Location: Cantaing
(50.1487°N, 3.1675°E)
Time: 10:44:22
(UTC+00:00)

Thor Agena Rocket - Pass Details

Date: 14 January 2026
Orbit: 755 x 802 km, 99.1° (Epoch: 11 February)

Event Time Altitude Azimuth Distance (km) Brightness Sun altitude
Rises 06:11:15 0° 17° (NNE) 3,238 6.8 -13.9°
Reaches altitude 10° 06:13:34 10° 20° (NNE) 2,313 6.0 -13.5°
Maximum altitude 06:18:39 67° 104° (ESE) 836 3.9 -12.8°
Drops below altitude 10° 06:23:45 10° 187° (S) 2,325 6.2 -12.0°
Sets 06:26:05 0° 190° (S) 3,255 6.9 -11.6°
